Location: Green River State Wildlife Area
(41.6390°N, 89.5080°W)
Time: 03:41:13
(UTC-06:00)

Daily predictions for brighter satellites

Satellite Brightness Start Highest point End
(mag) Time Altitude Azimuth Time Altitude Azimuth Time Altitude Azimuth
NOSS 3-4 (A) 4.2 03:52:08 60° E 03:52:08 60° E 03:58:43 10° SE
NOSS 3-4 (C) 4.2 03:52:11 60° E 03:52:11 60° E 03:58:49 10° SE
Cosmos 2082 Rocket 3.7 04:00:21 21° SSE 04:03:19 33° ESE 04:08:23 10° NE
Cosmos 1697 Rocket 4.1 04:05:47 30° NE 04:06:32 32° ENE 04:11:29 10° ESE
Cosmos 1833 Rocket 3.6 04:16:11 31° SSE 04:18:20 45° ESE 04:23:40 10° NE
Meteor 1-18 Rocket 4.5 04:30:18 63° SSE 04:30:18 63° SSE 04:35:10 10° S
Cosmos 2142 Rocket 4.4 04:32:45 48° N 04:34:37 81° E 04:40:48 10° S
USA 267 3.8 04:28:57 10° NE 04:34:16 41° N 04:34:16 41° N
Cosmos 1975 Rocket 4.5 04:37:39 32° SSE 04:37:39 32° SSE 04:40:02 10° SSE
IDEFIX/ARIANE 42P 4.4 04:34:24 10° NE 04:38:59 30° E 04:43:33 10° SSE
Cosmos 44 3.7 04:43:32 53° E 04:43:32 53° E 04:47:25 10° NE
Cosmos 1980 Rocket 3.5 04:41:42 20° N 04:45:03 37° ENE 04:50:17 10° SE
SJ 16-02 1.8 04:45:52 58° ENE 04:45:53 58° ENE 04:50:14 10° SSE
Okean 2 Rocket 3.4 04:42:24 10° S 04:46:51 66° E 04:51:21 10° NNE
Okean-O 3.7 04:45:11 10° NNE 04:49:26 44° E 04:53:41 10° S
Cosmos 292 Rocket 3.9 04:48:56 35° S 04:50:51 71° ESE 04:55:35 10° NNE
SL-24 R/B - RUBIN 2 3.8 04:51:41 62° SSE 04:51:41 62° SSE 04:55:16 10° SSE
Cosmos 2279 Rocket 4.0 04:48:15 10° N 04:54:31 80° E 05:00:44 10° S
RESURS DK-1 4.4 04:53:09 20° NNE 04:54:48 25° NE 04:58:15 10° ESE
Meteor 1-19 Rocket 4.4 04:58:37 12° N 05:04:11 79° E 05:10:05 10° SSE
Lacrosse 5 rocket 1.6 05:05:24 61° NNW 05:06:03 73° NE 05:10:34 10° SE
Cosmos 1125 Rocket 3.3 05:05:46 56° NW 05:06:47 73° WSW 05:11:57 10° S
BREEZE-M DEB (TANK) 3.0 05:07:11 67° NNW 05:07:28 71° NNE 05:12:26 10° ESE
COSMO-SKYMED 1 2.6 05:04:02 10° SSE 05:08:21 77° ENE 05:10:14 33° N
USA 234 3.3 05:03:25 10° SE 05:09:54 63° SW 05:12:20 39° WNW
SeaSat 1 3.8 05:07:49 10° N 05:10:14 24° NNW 05:10:14 24° NNW
Cosmos 2369 4.0 05:15:30 43° W 05:15:53 43° WSW 05:21:15 10° S
Tiangong 2 3.6 05:18:23 14° S 05:18:23 14° S 05:19:21 10° S
SL-16 R/B 4.1 05:13:22 10° N 05:18:03 25° NE 05:22:41 10° ESE
Cosmos 2278 4.0 05:18:03 42° W 05:18:44 44° WSW 05:24:05 10° S
USA 116 4.4 05:14:07 10° S 05:19:02 48° W 05:19:22 47° W
CZ-2C R/B 4.3 05:18:24 10° SSW 05:21:40 35° SW 05:21:40 35° SW
COSMOS 2487 4.4 05:25:09 19° N 05:25:09 19° N 05:26:16 10° N
EO 1 Del DPAF 3.1 05:21:24 10° S 05:25:13 76° WSW 05:26:22 43° NNW
Cosmos 1656 4.0 05:25:40 38° W 05:26:26 40° WSW 05:31:27 10° S
Cosmos 2322 Rocket 3.9 05:22:28 10° N 05:27:20 29° NE 05:32:12 10° ESE
GEOS 3 Rocket 3.9 05:28:24 10° NE 05:33:49 75° SE 05:39:09 10° SSW
MSX 4.3 05:28:36 10° NNE 05:34:19 63° E 05:40:00 10° S
Cosmos 1437 Rocket 3.0 05:30:42 10° S 05:34:40 72° E 05:38:36 10° NNE
Cosmos 44 Rocket 3.2 05:33:43 24° WSW 05:36:21 54° NW 05:41:00 10° NNE
Cosmos 540 Rocket 4.2 05:39:15 30° WNW 05:39:39 30° WNW 05:44:13 10° N
Nadezhda 4 Rocket 3.9 05:41:00 10° SSW 05:47:10 77° W 05:53:19 10° N
Cosmos 2082 Rocket 2.7 05:42:30 12° WSW 05:47:20 37° WNW 05:52:36 10° N
Meteor 2-20 4.4 05:42:15 10° SSW 05:48:15 60° W 05:54:17 10° N
Meteor 1-23 Rocket 4.2 05:43:57 10° N 05:49:34 88° ENE 05:55:07 10° S
Cosmos 1697 Rocket 3.2 05:47:34 22° NW 05:50:32 38° WSW 05:55:40 10° S
Timation 2 Rocket 4.3 05:43:46 10° SSW 05:50:37 82° ESE 05:57:32 10° NNE
CZ-2C R/B 2.3 05:49:01 10° N 05:53:56 71° WNW 05:58:39 10° SSW
SKYMED 2 4.3 05:52:40 10° SSW 05:56:32 31° W 05:58:51 19° NW
Aureole 1 4.3 05:57:00 25° NW 05:58:32 54° WSW 06:01:45 10° S
Cosmos 1833 Rocket 3.5 05:58:07 12° WSW 06:02:26 27° NW 06:07:13 10° N
CZ-4C R/B 2.3 05:59:40 10° SSW 06:04:48 76° ESE 06:10:40 10° NE
Cosmos 1536 3.3 06:01:26 10° SSW 06:05:14 38° WNW 06:09:02 10° N
Cosmos 1500 3.6 06:03:13 10° S 06:07:03 68° E 06:10:54 10° NNE
Okean 1-7 Rocket 4.2 06:04:56 10° N 06:09:24 59° E 06:13:52 10° SSE
SMAP 3.6 06:07:52 10° NNE 06:12:31 63° ESE 06:17:07 10° S
Cosmos 2151 Rocket 4.5 06:12:34 10° SW 06:16:15 26° WNW 06:19:57 10° NNW
USA 267 4.5 06:11:57 10° NE 06:16:57 24° N 06:21:36 11° WNW
IDEFIX/ARIANE 42P 3.2 06:13:56 10° N 06:18:33 33° WNW 06:23:10 10° SW
Meteor 1-11 Rocket 4.5 06:15:09 10° SW 06:20:26 33° WNW 06:25:42 10° N
Cosmos 1092 Rocket 4.0 06:17:14 10° SSW 06:23:15 58° W 06:29:19 10° N
SJ 16-02 3.2 06:22:56 12° W 06:23:55 13° W 06:25:50 10° WSW
Cosmos 44 4.4 06:22:04 12° W 06:24:42 19° NW 06:27:50 10° N
Okean-O 4.0 06:22:33 10° NNW 06:25:35 18° WNW 06:28:36 10° WSW
Cosmos 2360 Rocket 3.6 06:22:02 10° N 06:27:15 35° ENE 06:32:25 10° ESE
Cosmos 1980 Rocket 3.0 06:23:56 10° NW 06:28:56 32° WSW 06:33:53 10° SSW
deb Kosmos-1763 4.1 06:25:48 10° SSW 06:29:33 87° WNW 06:33:18 10° NNE
CORIOLIS 4.4 06:25:48 10° NNE 06:31:11 75° ESE 06:36:31 10° S
RESURS DK-1 3.4 06:29:14 10° NW 06:32:49 29° WSW 06:36:23 10° SSW
CZ-4 R/B 1.5 06:31:21 10° NNE 06:35:31 87° ESE 06:39:42 10° SSW
IRAS Rocket 4.2 06:31:04 10° NNE 06:36:36 83° WNW 06:42:09 10° SSW
AQUARIUS 4.1 06:32:41 10° N 06:37:11 72° WNW 06:41:39 10° SSW
Ariane Rocket 3.0 06:34:11 10° N 06:39:15 76° WNW 06:44:18 10° SSW
Cosmos 1666 3.9 06:36:12 10° SSE 06:39:54 47° E 06:43:36 10° NNE
Cosmos 1515 4.5 06:38:03 10° NNW 06:41:29 32° W 06:44:55 10° SSW
Cosmos 2026 Rocket 4.0 06:36:54 10° SSW 06:43:04 67° W 06:49:24 10° N
Meteor 1-4 Rocket 3.2 06:39:56 10° SW 06:43:27 37° WNW 06:47:00 10° N
Lacrosse 5 rocket 3.3 06:41:52 10° W 06:44:47 17° WSW 06:47:39 10° SSW
Cosmos 1553 Rocket 4.2 06:39:16 10° N 06:45:35 80° E 06:51:45 10° S
